Guymon, OK

2:30 AM CST on January 20, 2018 (GMT -0600)
Guymon Municipal

Weather History for KGUY - March, 2013

Change the Weather History Date:

Sunday, March 24, 2013

  Actual Average Record
Temperature  
Mean Temperature 27 °F 49 °F  
Max Temperature 39 °F 64 °F 82 °F (2004)
Min Temperature 15 °F 34 °F 15 °F (2013)
Degree Days  
Heating Degree Days 38 16  
Month to date heating degree days 453 474  
Since 1 July heating degree days 3686 3941  
Cooling Degree Days 0 0  
Month to date cooling degree days 0 0  
Year to date cooling degree days 0 0  
Moisture  
Dew Point 16 °F    
Average Humidity 62    
Maximum Humidity 84    
Minimum Humidity 40    
Precipitation  
Precipitation 0.00 in 0.05 in 1.04 in (2007)
Month to date precipitation 0.13 1.08  
Year to date precipitation 1.69 1.95  
Snow  
Snow 0.00 in - - ()
Month to date snowfall 2.5  
Since 1 July snowfall 22.0  
Snow Depth 2.00 in    
Sea Level Pressure  
Sea Level Pressure 30.20 in    
Wind  
Wind Speed 10 mph (NNW)    
Max Wind Speed 23 mph    
Max Gust Speed 28 mph    
Visibility 10 miles    
Events      
T = Trace of Precipitation, MM = Missing Value Source: NWS Daily Summary

Daily Weather History Graph

Daily Weather History Graph

Search for Another Location

Airport or City:

Trip Planner

Search our weather history database for the weather conditions in past years. The results will help you decide how hot, cold, wet, or windy it might be!

Date:

Astronomy

Mar. 24, 2013 Rise Set
Actual Time 7:43 AM CDT 8:01 PM CDT
Civil Twilight 7:17 AM CDT 8:27 PM CDT
Nautical Twilight 6:47 AM CDT 8:57 PM CDT
Astronomical Twilight 6:16 AM CDT 9:28 PM CDT
Moon 5:35 PM CDT (3/24) 5:50 AM CDT (3/24)
Length of Visible Light 13h 10m
Length of Day
12h 18m
Waxing Gibbous, 92% of the Moon is Illuminated
Mar 24
Waxing Gibbous
Mar 27
Full
Apr 2
Last Quarter
Apr 10
New
Apr 18
First Quarter

Hourly Weather History & Observations

Time (CDT) Temp. Windchill Dew Point Humidity Pressure Visibility Wind Dir Wind Speed Gust Speed Precip Events Conditions
12:53 AM 23.0 °F 8.0 °F 18.0 °F 81% 30.18 in 10.0 mi NNW 20.7 mph - N/A   Clear
1:48 AM 21.2 °F 6.8 °F 17.6 °F 86% 30.14 in 10.0 mi NW 17.3 mph - N/A   Mostly Cloudy
1:53 AM 21.9 °F 6.9 °F 17.1 °F 82% 30.19 in 10.0 mi NW 19.6 mph - N/A   Mostly Cloudy
2:10 AM 21.2 °F 6.4 °F 17.6 °F 86% 30.14 in 10.0 mi NW 18.4 mph - N/A   Scattered Clouds
2:53 AM 21.9 °F 7.3 °F 17.1 °F 82% 30.19 in 10.0 mi NW 18.4 mph - N/A   Clear
3:53 AM 21.9 °F 6.5 °F 16.0 °F 78% 30.17 in 10.0 mi NNW 20.7 mph - N/A   Clear
4:53 AM 21.0 °F 5.4 °F 14.0 °F 74% 30.16 in 10.0 mi NNW 20.7 mph - N/A   Clear
5:53 AM 19.9 °F 5.7 °F 12.9 °F 74% 30.18 in 10.0 mi NNW 16.1 mph - N/A   Clear
6:53 AM 18.0 °F 4.8 °F 10.9 °F 74% 30.22 in 10.0 mi NW 12.7 mph - N/A   Clear
7:53 AM 16.0 °F 2.9 °F 9.0 °F 74% 30.25 in 10.0 mi NW 11.5 mph - N/A   Clear
8:53 AM 19.9 °F 6.7 °F 10.9 °F 68% 30.25 in 10.0 mi NNW 13.8 mph - N/A   Clear
9:53 AM 21.9 °F 9.8 °F 12.9 °F 68% 30.26 in 10.0 mi North 12.7 mph - N/A   Clear
10:53 AM 25.0 °F 15.5 °F 15.1 °F 66% 30.26 in 10.0 mi North 9.2 mph - N/A   Clear
11:53 AM 28.0 °F 19.3 °F 16.0 °F 61% 30.26 in 10.0 mi North 9.2 mph - N/A   Clear
12:53 PM 30.0 °F 23.2 °F 17.1 °F 59% 30.25 in 10.0 mi NNW 6.9 mph - N/A   Clear
1:53 PM 33.1 °F 28.7 °F 19.0 °F 56% 30.21 in 10.0 mi NNW 4.6 mph - N/A   Clear
2:53 PM 33.1 °F 30.0 °F 17.1 °F 52% 30.19 in 10.0 mi Variable 3.5 mph - N/A   Partly Cloudy
3:53 PM 37.0 °F 34.5 °F 16.0 °F 42% 30.16 in 10.0 mi NNW 3.5 mph - N/A   Partly Cloudy
4:53 PM 37.9 °F 31.5 °F 17.1 °F 43% 30.14 in 10.0 mi NNE 9.2 mph - N/A   Clear
5:53 PM 37.9 °F 32.7 °F 17.1 °F 43% 30.14 in 10.0 mi North 6.9 mph 16.1 mph N/A   Partly Cloudy
6:53 PM 36.0 °F 28.0 °F 16.0 °F 44% 30.16 in 10.0 mi North 11.5 mph - N/A   Clear
7:53 PM 35.1 °F 29.3 °F 18.0 °F 50% 30.19 in 10.0 mi NNE 6.9 mph - N/A   Overcast
8:53 PM 34.0 °F 29.8 °F 19.9 °F 56% 30.19 in 10.0 mi North 4.6 mph - N/A   Overcast
9:53 PM 35.1 °F - 18.0 °F 50% 30.21 in 10.0 mi Calm Calm - N/A   Overcast
10:53 PM 33.1 °F 30.0 °F 23.0 °F 66% 30.23 in 10.0 mi NW 3.5 mph - N/A   Overcast
11:53 PM 33.1 °F 28.7 °F 23.0 °F 66% 30.24 in 10.0 mi WNW 4.6 mph - N/A   Overcast